EHI
0 0 0 0 0 0 0 0 0 1 1 3 5 7 11 13 15 18 20 24 31 35 36 35 34 37 39 37 35 35 37 35 34 34 33 32 29 27 26 25 23 23 23 22
0 0 0 0 0 0 0 1 1 2 3 5 5 7 10 13 15 17 19 24 29 31 33 34 33 35 38 38 37 35 34 32 31 31 31 30 28 27 26 25 25 24 24 24
0 0 0 0 0 1 1 1 3 4 6 6 5 6 9 12 16 19 21 24 26 27 28 29 30 33 35 36 35 32 29 26 25 26 27 27 26 25 24 24 25 24 24 23
0 0 0 0 0 0 0 1 4 6 8 6 5 7 11 15 18 22 22 23 23 24 25 26 28 30 30 29 30 28 25 23 22 24 25 25 26 26 24 23 22 22 21 19
0 0 0 0 0 0 0 1 4 7 8 7 8 11 15 18 19 20 19 20 21 22 23 25 28 27 25 25 26 26 24 23 24 24 24 24 26 27 26 23 19 17 15 14
0 0 0 0 0 0 0 1 3 7 7 8 10 12 14 17 17 17 16 17 19 19 21 24 26 23 21 22 25 26 25 25 26 26 24 24 24 25 24 20 16 13 12 12
0 0 0 0 0 1 2 2 4 5 5 6 8 9 10 13 15 15 15 16 18 19 21 23 24 22 21 22 24 25 25 26 26 25 23 22 22 20 18 16 15 13 13 13
0 0 0 0 1 2 5 5 4 4 3 3 5 6 8 11 14 15 16 17 18 19 22 24 24 23 23 24 25 24 23 23 23 21 19 18 18 16 14 14 14 13 12 12
1 0 0 0 1 3 4 4 3 3 4 4 5 6 7 10 15 16 17 18 17 18 21 25 25 24 25 26 26 24 22 21 20 18 16 14 13 12 13 14 13 11 11 11
2 1 0 0 1 1 1 1 1 3 5 5 6 5 6 10 15 17 17 17 17 17 20 21 22 22 24 26 26 23 20 18 16 14 12 10 8 9 11 13 11 9 10 10
2 1 0 0 1 0 0 1 2 3 4 5 5 5 7 11 14 15 15 15 15 16 17 16 16 18 21 25 25 20 17 15 12 10 8 7 5 5 7 8 7 7 8 9
1 0 0 0 0 0 1 2 4 4 3 3 4 6 9 12 14 15 15 14 14 14 14 13 13 15 18 22 22 18 15 13 11 8 7 5 4 3 3 3 3 3 4 4
0 0 0 0 1 1 2 2 3 4 3 2 4 7 11 13 14 16 17 16 15 14 14 14 13 14 16 18 18 17 14 12 11 9 6 5 4 3 3 2 2 1 1 0
0 0 0 1 2 3 2 1 1 3 3 4 6 10 12 12 13 17 20 19 17 16 15 15 14 14 14 14 15 15 12 11 11 9 6 4 4 4 4 3 4 3 1 0
0 0 0 1 3 3 2 1 1 3 4 5 8 10 11 11 14 18 21 20 17 16 16 16 16 16 14 11 12 12 11 10 10 9 6 3 3 3 3 3 4 3 2 1
0 0 1 1 2 2 1 2 2 3 3 5 8 8 9 11 14 17 19 18 17 17 17 18 18 18 15 12 10 11 11 9 8 7 4 2 2 1 1 2 3 2 2 2
0 1 2 3 2 1 1 2 3 3 3 6 8 8 8 10 13 15 16 17 18 19 19 19 18 17 16 14 11 10 9 6 5 4 3 3 2 2 1 2 3 3 3 3
1 3 4 3 1 0 1 2 3 3 5 7 9 8 7 9 12 13 14 16 18 19 19 17 15 14 14 12 10 8 7 5 5 4 3 3 3 4 3 4 5 4 4 4
3 3 4 2 1 1 2 3 3 3 4 7 9 8 6 7 9 10 11 12 15 16 17 15 11 11 11 8 6 6 6 5 5 5 4 4 4 5 5 5 5 5 5 6
3 3 2 2 1 1 2 3 3 3 3 6 9 9 6 7 8 9 8 9 12 15 15 13 10 9 8 5 3 4 5 4 4 5 5 5 5 5 5 4 3 4 5 6
3 3 3 2 1 1 1 2 4 4 4 6 8 8 7 7 8 8 8 9 11 13 12 9 7 7 5 3 3 4 5 5 4 3 3 3 3 4 4 3 2 2 3 4
4 4 4 3 1 0 0 2 5 6 7 7 6 6 7 7 6 7 9 10 9 9 8 5 4 3 2 2 4 5 5 4 3 1 1 1 1 2 2 2 2 2 2 3
5 5 5 4 2 1 1 3 7 9 8 7 6 6 7 6 4 5 6 7 6 4 4 3 1 0 0 2 3 4 4 3 2 1 0 0 0 1 1 1 1 1 1 2
5 6 6 5 4 4 4 5 8 8 7 7 6 6 6 5 4 4 4 3 2 2 2 1 0 0 0 1 1 2 3 2 1 1 0 0 0 1 2 1 0 0 0 1
5 6 7 6 5 6 6 6 5 4 4 4 5 5 5 5 4 2 2 1 0 0 0 0 0 0 0 0 0 1 2 1 1 1 0 0 1 2 3 2 1 1 0 0
5 6 7 6 6 6 5 4 2 1 1 2 2 2 3 3 2 1 1 1 0 0 0 0 0 0 0 0 0 1 2 1 1 0 0 1 2 3 2 1 1 1 0 0
4 5 7 6 5 5 3 1 0 0 0 1 1 1 1 1 1 1 1 1 1 1 1 1 0 0 0 1 1 1 2 2 1 0 0 1 2 3 1 1 1 1 0 0
Wind_Speed
10 10 10 9 10 10 8 8 8 5 2 1 1 2 3 3 3 4 4 4 4 4 3 2 2 2 2 1 1 1 1 1 1 1 1 0 1 0 0 1 1 1 1 2
11 11 13 12 11 10 8 8 8 6 2 3 4 3 2 1 3 3 4 4 4 3 3 2 2 1 1 1 1 1 1 1 1 1 1 0 0 0 0 1 1 1 2 1
11 11 12 11 8 8 7 7 8 5 2 2 2 2 2 3 4 4 4 4 3 2 2 2 2 2 1 1 1 1 1 1 1 1 1 0 1 1 1 1 1 1 1 1
10 11 13 6 5 6 6 6 5 4 3 2 1 1 2 4 4 4 4 3 3 2 1 2 3 3 2 1 1 1 1 0 1 1 1 0 1 1 1 1 1 1 1 1
8 11 10 6 4 4 6 5 3 3 3 4 4 2 4 6 5 4 4 3 3 2 3 3 3 3 2 1 1 1 1 0 0 0 0 1 1 1 1 1 2 2 2 1
9 11 9 3 4 5 6 3 4 4 3 2 2 2 2 5 5 6 5 4 3 3 3 2 3 2 2 2 2 1 1 1 1 1 1 2 2 1 1 2 2 2 2 2
10 11 6 5 6 6 5 2 6 5 4 3 3 3 4 5 6 5 4 3 3 2 2 2 1 1 2 2 2 2 2 2 2 2 2 2 1 1 2 2 2 3 3 2
8 10 5 5 5 3 3 3 4 4 4 4 4 4 4 4 4 4 2 2 2 1 1 1 2 2 2 3 3 3 2 2 2 2 3 2 1 2 2 2 3 3 2 1
3 3 3 5 4 4 2 3 3 3 3 3 2 3 3 4 4 3 2 2 1 1 1 2 2 2 2 2 3 3 2 2 3 3 3 2 2 2 2 2 2 2 2 1
4 2 2 2 2 2 3 3 3 3 3 3 2 2 2 3 2 2 2 2 3 3 3 2 2 2 2 2 2 2 3 3 3 3 2 1 2 1 1 1 1 2 2 2
4 5 5 3 3 3 3 3 2 3 3 3 2 2 2 2 2 2 1 2 2 2 3 3 3 2 2 2 2 2 3 3 3 3 2 1 1 2 1 1 1 2 2 2
4 4 5 3 3 4 4 4 3 2 3 3 3 2 2 1 1 1 1 2 2 2 2 2 2 2 2 2 2 2 3 3 3 3 2 2 1 1 2 1 2 2 2 1
3 5 5 4 4 4 3 4 3 2 2 2 3 3 2 1 1 1 1 1 1 2 2 2 2 2 2 3 2 2 3 3 3 3 2 2 2 1 1 0 1 1 3 3
2 3 4 4 4 3 3 4 3 3 2 2 2 2 1 1 1 2 2 2 2 2 2 2 2 2 2 2 2 3 4 3 3 3 3 3 2 2 2 1 1 2 3 5
4 4 4 4 3 3 3 3 3 3 2 2 2 1 1 1 1 1 1 1 1 2 2 2 2 2 3 3 3 4 4 2 3 3 3 3 3 3 2 2 2 2 1 2
6 5 6 5 3 4 4 3 3 3 2 2 2 2 1 1 1 1 1 1 1 2 1 2 2 2 3 3 4 3 2 3 4 4 3 2 3 3 2 2 2 2 2 1
6 7 6 5 4 4 4 3 3 3 3 2 2 2 2 2 2 1 1 1 1 1 1 1 2 3 3 3 4 4 3 3 3 4 3 3 3 3 3 2 2 2 2 1
6 6 6 4 3 3 3 2 3 3 2 2 2 2 2 2 2 2 2 2 2 2 2 2 2 3 4 3 3 4 4 3 3 2 2 2 3 3 3 2 2 3 2 2
5 5 5 4 3 2 2 2 2 3 3 1 1 2 2 2 2 3 3 3 3 3 2 1 2 4 5 3 4 4 4 3 3 3 2 2 2 3 2 3 3 3 3 2
4 4 4 3 3 3 3 2 2 2 2 2 1 2 2 2 3 3 4 4 3 2 2 2 3 4 4 3 4 4 4 4 3 2 2 2 2 2 2 3 3 3 3 3
4 4 4 3 2 3 3 3 2 2 2 2 2 2 2 3 3 4 4 4 1 0 2 2 3 3 3 3 4 4 3 3 3 3 2 2 2 3 3 3 3 3 3 3
4 4 4 3 3 3 3 3 3 3 3 2 2 2 3 3 4 4 4 3 2 1 2 3 3 2 3 4 4 4 4 4 4 2 2 2 2 2 3 3 3 3 3 3
4 4 4 4 3 3 3 3 3 2 2 2 2 3 4 3 3 4 3 2 2 1 2 3 2 1 3 4 4 4 4 4 4 3 2 2 3 3 3 3 3 3 3 2
4 4 4 4 3 3 3 3 3 2 2 2 3 3 3 3 2 2 2 1 1 0 2 2 1 2 3 4 4 3 4 4 3 3 3 3 3 3 2 2 3 3 3 3
3 4 3 3 3 3 3 3 3 3 3 2 3 3 3 2 2 2 2 1 1 2 3 2 3 4 4 5 4 3 3 3 3 3 3 3 3 2 2 3 2 2 3 2
4 3 2 3 3 2 3 3 3 2 2 2 2 2 2 2 3 2 2 3 3 3 3 3 2 4 4 4 5 4 3 2 2 2 2 2 2 2 3 3 4 3 3 2
4 3 2 3 3 3 2 2 2 2 2 1 2 2 2 2 2 2 3 3 3 2 3 3 3 3 3 4 4 3 3 2 1 2 2 3 3 3 2 3 3 2 2 2
Wind_Direction
277 287 289 279 272 271 276 284 290 291 261 209 67 75 99 96 104 100 96 92 81 66 66 62 71 85 82 64 62 70 84 66 63 70 76 50 318 333 308 274 265 270 267 275
274 271 277 274 278 280 283 289 287 290 327 55 42 25 68 120 115 97 92 83 73 66 63 65 58 71 85 79 83 90 92 75 56 73 74 73 329 35 354 286 294 288 285 287
275 275 277 268 284 292 295 308 309 315 3 48 49 15 37 69 89 93 91 87 78 66 52 50 46 49 69 85 102 94 77 62 71 86 73 46 321 357 291 276 289 286 301 310
269 272 269 281 302 310 307 312 325 344 15 9 11 314 69 81 95 102 89 86 76 41 32 41 42 31 21 35 100 119 118 18 36 69 56 20 311 308 289 290 282 269 278 283
273 271 263 270 294 308 298 298 345 359 347 342 350 2 60 57 62 98 94 82 84 71 34 34 39 22 2 347 77 92 50 1 18 346 297 274 262 262 263 249 255 251 252 244
264 271 274 297 329 309 279 255 9 2 346 328 319 300 52 54 62 67 73 71 71 64 54 41 33 15 347 346 359 12 354 330 305 252 253 254 241 249 257 245 254 264 261 250
256 264 262 318 325 309 279 1 21 6 355 356 25 21 55 61 63 56 69 75 68 69 72 75 51 17 345 345 344 340 335 329 324 302 275 248 213 237 243 250 258 265 259 249
253 259 263 340 322 355 26 24 9 4 351 22 46 62 72 75 71 55 47 70 73 62 67 79 67 33 5 0 355 352 348 335 318 303 289 282 234 243 246 252 249 246 247 240
291 291 7 12 24 40 21 1 355 351 1 18 44 52 63 71 73 74 36 22 8 344 46 43 48 35 354 357 1 352 334 323 303 294 285 276 258 251 244 243 274 278 271 275
295 294 332 335 351 7 7 354 355 354 355 352 27 37 40 71 71 64 48 9 357 10 20 21 21 20 1 7 2 336 332 326 308 293 286 285 276 274 270 275 278 283 281 281
283 294 295 316 320 339 348 335 342 356 354 12 16 2 16 72 67 52 34 10 7 9 358 2 18 10 2 5 338 321 316 313 304 296 294 290 311 328 293 291 246 242 288 313
282 302 290 302 325 333 343 332 324 342 1 2 355 359 12 36 52 50 40 21 6 0 354 359 7 356 353 350 343 329 316 306 295 294 288 278 260 301 359 246 219 194 197 223
320 312 304 328 330 323 316 303 302 320 334 344 343 350 19 26 19 12 25 18 349 337 335 339 338 347 354 345 339 324 308 296 296 302 297 282 282 266 253 307 278 237 221 227
335 319 314 312 313 323 318 313 317 317 324 331 338 2 357 353 3 358 353 352 348 335 323 328 334 345 344 328 312 302 295 301 307 304 298 289 285 278 263 240 229 242 238 237
292 292 291 300 307 301 290 290 292 300 323 336 5 357 336 345 332 334 321 328 333 309 319 331 327 329 320 307 299 294 297 311 309 301 290 288 294 292 288 291 289 270 229 243
279 272 267 263 271 285 282 284 293 315 331 338 341 332 333 334 325 316 310 332 293 302 323 323 319 319 312 310 306 290 286 292 286 288 289 304 304 304 311 307 304 311 302 275
267 265 263 264 262 268 286 308 315 329 335 338 346 346 333 323 324 327 315 308 283 277 273 283 300 305 298 297 299 296 293 287 273 284 302 311 312 312 315 312 319 319 303 306
256 262 265 259 259 276 297 329 334 331 334 350 8 357 332 319 317 319 312 302 285 273 276 286 303 293 286 289 294 295 294 295 294 294 306 316 318 314 318 320 313 307 299 288
244 252 263 265 264 267 287 315 330 336 345 350 340 326 317 311 312 301 299 288 274 267 273 305 286 271 279 289 294 278 278 282 286 292 294 296 290 307 327 320 310 304 295 294
241 252 261 272 274 280 274 277 293 314 318 309 303 302 302 304 300 289 284 273 270 283 297 298 272 278 282 285 286 282 288 293 287 284 285 291 294 298 295 299 305 305 302 301
249 257 256 261 273 282 280 281 270 268 277 272 274 283 291 294 287 281 276 275 269 291 288 269 260 280 295 317 288 281 290 295 292 292 297 294 293 294 292 291 294 297 302 306
259 263 265 268 268 277 285 284 274 267 269 268 279 295 297 292 286 282 280 286 298 52 292 279 279 335 344 315 289 291 294 291 287 294 304 305 295 289 292 299 299 301 306 311
282 283 279 273 273 275 270 268 277 277 264 266 267 277 284 291 292 293 298 305 310 4 294 301 329 334 308 294 293 293 293 293 293 292 290 288 287 289 296 302 308 311 315 318
271 276 278 276 271 266 263 269 276 271 261 259 255 260 270 273 279 284 291 315 1 281 294 313 275 262 270 279 285 292 293 289 290 290 291 289 285 292 306 317 325 321 315 316
260 262 258 258 263 263 262 258 254 240 247 257 259 255 257 266 276 288 297 296 250 268 287 263 238 251 266 283 288 285 278 288 302 313 308 307 310 316 318 317 310 300 306 312
248 252 250 247 258 266 265 264 258 251 251 253 256 253 259 259 261 268 278 277 271 263 281 284 256 257 270 279 283 288 288 298 305 294 300 307 311 312 314 317 318 315 315 319
246 239 237 246 239 235 245 263 276 275 272 277 287 282 272 273 281 287 281 279 281 272 270 273 276 277 290 299 298 297 296 301 312 339 342 333 328 325 331 327 317 317 325 328